When you browse on this site, cookies collect data to enhance your experience and personalize the content and advertising you see.
Visit our Privacy Policy to learn more. By continuing to use the site, you agree to this use of cookies and data.
  • In Hungary
  • List of Countries
  • For 7 days
  • Water Temperature
  • Satellite Maps
  • Weather Map
  • News
  • Weather Widgets
  • user-avatar
    Login

    Hourly Weather Tula

    Today, 23 February, Saturday

    Time Temperature Precipitation Wind Pressure Humidity
    00:00 +20°C° 0 mm 2 mps 656 mmHg 52%
    01:00 +20°C° 0 mm 2 mps 656 mmHg 50%
    02:00 +20°C° 0 mm 2 mps 656 mmHg 48%
    03:00 +19°C° 0 mm 2 mps 656 mmHg 49%
    04:00 +19°C° 0 mm 2 mps 656 mmHg 49%
    05:00 +19°C° 0 mm 2 mps 656 mmHg 49%
    06:00 +20°C° 0 mm 2 mps 656 mmHg 46%
    07:00 +23°C° 0 mm 2 mps 657 mmHg 44%
    08:00 +24°C° 0 mm 2 mps 658 mmHg 41%
    09:00 +25°C° 0 mm 3 mps 659 mmHg 38%
    10:00 +26°C° 0 mm 3 mps 659 mmHg 34%
    11:00 +27°C° 0 mm 4 mps 660 mmHg 31%
    12:00 +25°C° 0.3 mm 4 mps 659 mmHg 36%
    13:00 +24°C° 0.3 mm 3 mps 658 mmHg 41%
    14:00 +22°C° 0.3 mm 3 mps 657 mmHg 46%
    15:00 +23°C° 0 mm 2 mps 657 mmHg 45%
    16:00 +23°C° 0 mm 2 mps 657 mmHg 44%
    17:00 +24°C° 0 mm 1 mps 658 mmHg 43%
    18:00 +22°C° 0 mm 1 mps 658 mmHg 49%
    19:00 +20°C° 0 mm 2 mps 658 mmHg 56%
    20:00 +18°C° 0 mm 2 mps 659 mmHg 62%
    21:00 +18°C° 0 mm 2 mps 659 mmHg 67%
    22:00 +17°C° 0 mm 2 mps 660 mmHg 71%
    23:00 +16°C° 0 mm 2 mps 660 mmHg 76%

    Tomorrow, 24 February, Sunday

    Time Temperature Precipitation Wind Pressure Humidity
    00:00 +16°C° 0 mm 2 mps 660 mmHg 80%
    01:00 +15°C° 0 mm 2 mps 659 mmHg 83%
    02:00 +14°C° 0 mm 2 mps 659 mmHg 87%
    03:00 +14°C° 0 mm 1 mps 659 mmHg 88%
    04:00 +14°C° 0 mm 1 mps 659 mmHg 89%
    05:00 +13°C° 0 mm 1 mps 659 mmHg 90%
    06:00 +14°C° 0 mm 2 mps 660 mmHg 83%
    07:00 +15°C° 0 mm 2 mps 661 mmHg 76%
    08:00 +15°C° 0 mm 2 mps 661 mmHg 69%
    09:00 +17°C° 0 mm 2 mps 662 mmHg 59%
    10:00 +18°C° 0 mm 3 mps 663 mmHg 50%
    11:00 +19°C° 0 mm 3 mps 663 mmHg 40%
    12:00 +20°C° 0 mm 3 mps 663 mmHg 37%
    13:00 +21°C° 0 mm 4 mps 663 mmHg 35%
    14:00 +22°C° 0 mm 4 mps 662 mmHg 32%
    15:00 +21°C° 0 mm 4 mps 662 mmHg 33%
    16:00 +20°C° 0 mm 4 mps 661 mmHg 34%
    17:00 +19°C° 0 mm 4 mps 661 mmHg 35%
    18:00 +17°C° 0 mm 3 mps 661 mmHg 41%
    19:00 +14°C° 0 mm 3 mps 661 mmHg 46%
    20:00 +13°C° 0 mm 2 mps 661 mmHg 51%
    21:00 +12°C° 0 mm 2 mps 661 mmHg 54%
    22:00 +11°C° 0 mm 1 mps 661 mmHg 58%
    23:00 +11°C° 0 mm 1 mps 661 mmHg 61%

    Day after tomorrow, 25 February, Monday

    Time Temperature Precipitation Wind Pressure Humidity
    00:00 +11°C° 0 mm 1 mps 660 mmHg 61%
    01:00 +10°C° 0 mm 1 mps 660 mmHg 61%
    02:00 +10°C° 0 mm 1 mps 659 mmHg 61%
    03:00 +10°C° 0 mm 1 mps 659 mmHg 62%
    04:00 +10°C° 0 mm 1 mps 659 mmHg 62%
    05:00 +9°C° 0 mm 0 mps 659 mmHg 63%
    06:00 +12°C° 0 mm 1 mps 660 mmHg 58%
    07:00 +14°C° 0 mm 1 mps 661 mmHg 54%
    08:00 +15°C° 0 mm 1 mps 661 mmHg 49%
    09:00 +18°C° 0 mm 1 mps 661 mmHg 47%
    10:00 +19°C° 0 mm 2 mps 662 mmHg 44%
    11:00 +21°C° 0 mm 2 mps 662 mmHg 42%
    12:00 +23°C° 0 mm 2 mps 661 mmHg 41%
    13:00 +24°C° 0 mm 3 mps 660 mmHg 41%
    14:00 +25°C° 0 mm 3 mps 659 mmHg 40%
    15:00 +24°C° 0 mm 3 mps 659 mmHg 45%
    16:00 +22°C° 0 mm 3 mps 659 mmHg 50%
    17:00 +21°C° 0 mm 3 mps 658 mmHg 55%
    18:00 +19°C° 0 mm 3 mps 658 mmHg 65%
    19:00 +17°C° 0 mm 2 mps 658 mmHg 75%
    20:00 +15°C° 0 mm 2 mps 658 mmHg 85%
    21:00 +14°C° 0 mm 1 mps 659 mmHg 88%
    22:00 +14°C° 0 mm 1 mps 659 mmHg 90%
    23:00 +14°C° 0 mm 1 mps 659 mmHg 93%

    26 February, Tuesday

    Time Temperature Precipitation Wind Pressure Humidity
    00:00 +14°C° 0 mm 1 mps 658 mmHg 93%
    01:00 +14°C° 0 mm 1 mps 658 mmHg 93%
    02:00 +14°C° 0 mm 1 mps 658 mmHg 93%
    03:00 +14°C° 0 mm 1 mps 658 mmHg 91%
    04:00 +13°C° 0 mm 1 mps 658 mmHg 90%
    05:00 +13°C° 0 mm 1 mps 657 mmHg 88%
    06:00 +15°C° 0 mm 1 mps 658 mmHg 78%
    07:00 +18°C° 0 mm 1 mps 659 mmHg 68%
    08:00 +21°C° 0 mm 1 mps 660 mmHg 58%
    09:00 +23°C° 0 mm 1 mps 661 mmHg 51%
    10:00 +25°C° 0 mm 2 mps 661 mmHg 44%
    11:00 +27°C° 0 mm 2 mps 661 mmHg 37%
    12:00 +28°C° 0 mm 2 mps 660 mmHg 35%
    13:00 +29°C° 0 mm 2 mps 659 mmHg 34%
    14:00 +30°C° 0 mm 3 mps 659 mmHg 32%
    15:00 +28°C° 0 mm 3 mps 658 mmHg 39%
    16:00 +27°C° 0 mm 3 mps 658 mmHg 46%
    17:00 +26°C° 0 mm 3 mps 658 mmHg 53%
    18:00 +22°C° 0 mm 3 mps 658 mmHg 64%
    19:00 +20°C° 0 mm 2 mps 658 mmHg 76%
    20:00 +18°C° 0 mm 2 mps 658 mmHg 87%
    21:00 +19°C° 0 mm 1 mps 658 mmHg 90%
    22:00 +18°C° 0 mm 1 mps 658 mmHg 92%
    23:00 +18°C° 0 mm 1 mps 658 mmHg 95%

    27 February, Wednesday

    Time Temperature Precipitation Wind Pressure Humidity
    00:00 +18°C° 0 mm 1 mps 657 mmHg 95%
    01:00 +18°C° 0 mm 1 mps 657 mmHg 94%
    02:00 +15°C° 0 mm 0 mps 657 mmHg 94%
    03:00 +15°C° 0 mm 0 mps 657 mmHg 93%
    04:00 +15°C° 0 mm 0 mps 657 mmHg 92%
    05:00 +14°C° 0 mm 0 mps 657 mmHg 92%
    06:00 +16°C° 0 mm 0 mps 658 mmHg 83%
    07:00 +18°C° 0 mm 0 mps 659 mmHg 73%
    08:00 +20°C° 0 mm 0 mps 660 mmHg 64%
    09:00 +24°C° 0 mm 1 mps 660 mmHg 55%
    10:00 +26°C° 0 mm 1 mps 660 mmHg 47%
    11:00 +28°C° 0 mm 1 mps 661 mmHg 38%
    12:00 +29°C° 0 mm 2 mps 660 mmHg 37%
    13:00 +30°C° 0 mm 2 mps 659 mmHg 36%
    14:00 +30°C° 0 mm 3 mps 659 mmHg 35%
    15:00 +29°C° 0 mm 3 mps 658 mmHg 42%
    16:00 +27°C° 0 mm 3 mps 658 mmHg 50%
    17:00 +26°C° 0 mm 3 mps 657 mmHg 58%
    18:00 +24°C° 0 mm 3 mps 657 mmHg 68%
    19:00 +21°C° 0 mm 2 mps 657 mmHg 79%
    20:00 +19°C° 0 mm 2 mps 657 mmHg 89%
    21:00 +20°C° 0 mm 1 mps 657 mmHg 91%
    22:00 +19°C° 0 mm 1 mps 657 mmHg 93%
    23:00 +19°C° 0 mm 1 mps 657 mmHg 95%

    28 February, Thursday

    Time Temperature Precipitation Wind Pressure Humidity
    00:00 +19°C° 0 mm 1 mps 657 mmHg 94%
    01:00 +17°C° 0 mm 0 mps 656 mmHg 94%
    02:00 +17°C° 0 mm 0 mps 656 mmHg 93%
    03:00 +16°C° 0 mm 0 mps 656 mmHg 93%
    04:00 +16°C° 0 mm 0 mps 656 mmHg 93%
    05:00 +15°C° 0 mm 0 mps 656 mmHg 93%
    06:00 +17°C° 0 mm 0 mps 656 mmHg 85%
    07:00 +18°C° 0 mm 0 mps 657 mmHg 76%
    08:00 +20°C° 0 mm 0 mps 658 mmHg 68%
    09:00 +24°C° 0 mm 1 mps 658 mmHg 60%
    10:00 +26°C° 0 mm 2 mps 658 mmHg 51%
    11:00 +28°C° 0 mm 2 mps 658 mmHg 42%
    12:00 +29°C° 0 mm 2 mps 657 mmHg 40%
    13:00 +29°C° 0 mm 3 mps 657 mmHg 39%
    14:00 +30°C° 0 mm 3 mps 656 mmHg 37%
    15:00 +29°C° 0 mm 3 mps 656 mmHg 44%
    16:00 +28°C° 0 mm 3 mps 655 mmHg 50%
    17:00 +27°C° 0 mm 3 mps 655 mmHg 57%
    18:00 +25°C° 0 mm 3 mps 655 mmHg 67%
    19:00 +23°C° 0 mm 2 mps 655 mmHg 77%
    20:00 +20°C° 0 mm 2 mps 655 mmHg 87%
    21:00 +21°C° 0 mm 1 mps 655 mmHg 89%
    22:00 +20°C° 0 mm 1 mps 655 mmHg 91%
    23:00 +20°C° 0 mm 1 mps 655 mmHg 93%
    Show more